DW5623 Weather Reports


time (UTC)temp
F
wind
direction
speed
knots
gust
knots
rain 1hr
in
rain 24hr
in
rain mn
in
humidity
%
barometer
mb
20260507181541 64 0 0.0 3.5 0.00 0.03 0.03 55 1013.3
20260507180046 64 254 0.0 2.6 0.00 0.03 0.03 54 1013.1
20260507174550 64 9 0.0 2.6 0.00 0.03 0.03 54 1013.0
20260507173044 64 311 0.9 3.5 0.00 0.03 0.03 53 1013.0
20260507171543 63 0 0.0 5.2 0.00 0.03 0.03 54 1012.8
20260507170100 64 0 0.0 2.6 0.00 0.03 0.03 52 1012.8
20260507164555 64 246 0.9 6.1 0.00 0.03 0.03 53 1012.9
20260507163048 63 248 0.9 3.5 0.00 0.03 0.03 54 1012.9
20260507161545 64 247 1.7 6.1 0.00 0.03 0.03 54 1012.9
20260507160045 63 0 0.0 2.6 0.00 0.03 0.03 55 1012.9
20260507154550 63 245 0.9 4.3 0.00 0.04 0.03 54 1012.9
20260507153041 64 0 0.9 3.5 0.00 0.04 0.03 55 1012.9
20260507151541 64 31 2.6 7.0 0.00 0.04 0.03 55 1012.9
20260507150048 64 345 1.7 5.2 0.00 0.04 0.03 54 1013.0
20260507144542 64 53 1.7 5.2 0.00 0.04 0.03 56 1013.0
20260507143041 62 272 1.7 5.2 0.00 0.04 0.03 57 1013.0
20260507141542 62 261 1.7 7.0 0.00 0.04 0.03 59 1013.0
20260507140048 63 343 1.7 7.0 0.00 0.04 0.03 60 1013.1
20260507134546 62 17 1.7 7.0 0.00 0.10 0.03 61 1013.1
20260507133059 61 352 0.9 3.5 0.00 0.10 0.03 60 1013.4
20260507131550 62 109 0.9 7.8 0.00 0.10 0.03 60 1013.4
20260507130055 61 253 1.7 6.1 0.00 0.10 0.03 62 1013.4
20260507124548 62 242 0.9 4.3 0.00 0.18 0.03 62 1013.4
20260507123051 62 327 0.9 6.1 0.00 0.18 0.03 65 1013.4
20260507121545 60 252 1.7 7.0 0.00 0.18 0.03 64 1013.5
20260507120052 60 255 0.9 6.1 0.00 0.18 0.03 67 1013.4
20260507114617 58 153 0.0 5.2 0.00 0.18 0.03 72 1013.5
20260507113049 59 350 0.9 5.2 0.00 0.18 0.03 72 1013.7
20260507111548 57 360 0.9 4.3 0.00 0.18 0.03 75 1013.7
20260507110045 58 277 1.7 4.3 0.00 0.18 0.03 74 1013.9
20260507104547 57 321 0.9 4.3 0.00 0.18 0.03 74 1013.8
20260507103049 56 0 1.7 5.2 0.00 0.18 0.03 74 1013.9
20260507101548 56 197 1.7 5.2 0.00 0.18 0.03 75 1013.9
20260507100047 55 211 1.7 6.1 0.00 0.18 0.03 77 1014.1
20260507094542 55 175 1.7 5.2 0.00 0.18 0.03 78 1014.1
20260507093049 54 19 1.7 6.1 0.00 0.18 0.03 81 1014.2
20260507091545 53 209 0.9 7.8 0.00 0.18 0.03 81 1014.1
20260507090041 53 246 0.9 4.3 0.00 0.18 0.03 83 1013.9
20260507084555 53 229 0.9 3.5 0.00 0.19 0.03 85 1013.8
20260507083047 52 248 0.0 3.5 0.00 0.19 0.03 85 1013.8
20260507081543 52 293 1.7 4.3 0.00 0.19 0.03 86 1013.8
20260507080045 52 243 0.9 7.0 0.00 0.19 0.03 86 1013.8
20260507074549 52 269 0.9 4.3 0.00 0.18 0.03 88 1013.7
20260507073051 51 244 0.9 5.2 0.01 0.18 0.03 90 1013.6
20260507071544 51 268 0.0 7.0 0.01 0.18 0.03 90 1013.6
20260507070043 51 266 0.9 2.6 0.01 0.18 0.03 90 1013.5
20260507064549 51 0 0.0 1.7 0.00 0.18 0.02 90 1013.3
20260507063041 50 0 0.0 2.6 0.00 0.17 0.01 90 1013.3
20260507061545 50 340 0.0 2.6 0.00 0.17 0.01 90 1013.2
20260507060045 50 294 0.0 1.7 0.00 0.17 0.01 89 1013.0
20260507054541 49 328 0.9 2.6 0.00 0.17 0.01 89 1012.9
20260507053042 49 325 0.0 6.1 0.00 0.17 0.01 89 1012.8
20260507051541 49 0 0.0 0.9 0.00 0.17 0.01 88 1012.7
20260507050048 49 0 0.0 0.9 0.00 0.17 0.01 87 1012.4
20260507044543 49 0 0.0 1.7 0.00 0.17 0.01 87 1012.2
20260507043042 49 271 0.0 0.9 0.00 0.17 0.01 86 1012.1
20260507041541 49 0 0.0 1.7 0.00 0.17 0.01 86 1012.1
20260507040043 49 271 0.0 1.7 0.00 0.17 0.01 85 1012.1
20260507034549 49 0 0.0 1.7 0.01 0.17 0.01 85 1012.0
20260507033053 50 262 1.7 7.8 0.01 0.17 0.01 84 1011.9
20260507031547 50 0 0.0 2.6 0.00 0.16 0.00 83 1011.8
20260507030043 50 0 0.0 3.5 0.00 0.16 0.00 83 1011.6
20260507024551 50 0 0.9 3.5 0.00 0.15 0.00 83 1011.6
20260507023050 50 272 0.9 4.3 0.00 0.15 0.00 83 1011.7
20260507021546 50 193 0.0 2.6 0.00 0.15 0.00 83 1011.5
20260507020104 50 273 0.0 1.7 0.00 0.15 0.00 82 1011.4
20260507014546 50 254 0.0 1.7 0.00 0.15 0.00 81 1011.3
20260507013050 50 0 0.9 5.2 0.00 0.15 0.00 81 1011.1
20260507011548 50 0 0.0 3.5 0.00 0.15 0.00 80 1011.0
20260507010048 50 228 0.9 7.0 0.00 0.15 0.00 80 1011.1
20260507004553 50 323 1.7 6.1 0.00 0.15 0.00 80 1011.0
20260507003048 50 209 0.9 6.1 0.00 0.15 0.00 80 1011.0
20260507001545 51 0 0.9 5.2 0.00 0.15 0.00 80 1011.0
20260507000051 51 275 0.9 2.6 0.00 0.15 0.00 79 1011.0
20260506234551 51 348 0.9 6.1 0.00 0.15 0.00 79 1010.7
20260506233108 52 260 0.9 3.5 0.00 0.15 0.00 79 1010.7
20260506231541 52 283 2.6 7.8 0.00 0.15 0.00 78 1010.5
20260506230048 52 201 0.0 5.2 0.00 0.15 0.00 78 1010.4
20260506224551 52 162 2.6 7.0 0.00 0.16 0.00 79 1010.6
20260506223047 51 166 1.7 6.1 0.00 0.16 0.00 80 1010.5
20260506221548 51 176 0.9 7.0 0.00 0.16 0.00 80 1010.3
20260506220047 51 240 0.9 5.2 0.00 0.16 0.00 80 1010.4
20260506214543 51 160 0.9 6.1 0.00 0.17 0.16 80 1010.4
20260506213057 51 241 2.6 7.8 0.00 0.17 0.16 80 1010.4
20260506211540 52 231 1.7 7.0 0.00 0.17 0.16 79 1010.5
20260506210049 52 252 0.9 6.1 0.00 0.17 0.16 79 1010.4
20260506204544 51 177 2.6 7.0 0.00 0.18 0.16 80 1010.2
20260506203043 51 286 0.9 7.0 0.00 0.18 0.16 80 1010.2
20260506201542 51 252 0.9 5.2 0.00 0.18 0.16 80 1010.3
20260506200042 51 115 0.0 7.0 0.00 0.18 0.16 80 1010.3
20260506194548 51 161 0.9 3.5 0.00 0.18 0.16 80 1010.1
20260506193045 52 325 0.9 5.2 0.00 0.18 0.16 79 1009.8
20260506191543 52 0 0.9 4.3 0.00 0.18 0.16 79 1009.7
20260506190043 52 152 2.6 6.1 0.00 0.18 0.16 79 1009.5
20260506184551 52 252 0.9 10.4 0.00 0.18 0.16 80 1009.5
20260506183054 52 148 1.7 4.3 0.00 0.18 0.16 80 1009.3